Location: Baia Mare
(47.6567°N, 23.5850°E)
Time: 02:43:34
(UTC+03:00)

ISS - Pass Details

Date: 25 February 2019
Orbit: 417 x 423 km, 51.6° (Epoch: 25 October)

Event Time Altitude Azimuth Distance (km) Brightness Sun altitude
Exits shadow 04:30:56 21° 95° (E) 1,037 -1.2 -28.1°
Drops below altitude 10° 04:32:28 10° 78° (ENE) 1,558 0.1 -27.8°
Enters shadow 05:28:42 -69° 247° (WSW) 12,351 3.6 -18.6°
Maximum altitude 06:06:22 62° 342° (NNW) 499 -3.5 -12.2°
